Location: Unspecified
(0.0000°N, 0.0000°E)
Time: 20:14:16
(UTC+00:00)

BlueWalker 3 - Pass Details

Date: 22 March 2023
Orbit: 497 x 514 km, 53.2° (Epoch: 29 March)

Event Time Altitude Azimuth Distance (km) Brightness Sun altitude
Rises 18:37:12 0° 199° (SSW) 2,622 5.8 -7.6°
Reaches altitude 10° 18:39:33 10° 189° (S) 1,733 4.8 -8.2°
Maximum altitude 18:43:07 33° 124° (SE) 868 2.7 -9.1°
Drops below altitude 10° 18:46:40 10° 59° (ENE) 1,720 4.1 -9.9°
Enters shadow 18:46:50 - 57° (ENE) 1,784 4.2 -10.0°
